PTD16 EGNS-EGAC

Flight info

Callsign PTD16
Flight time 1h 0m
Altitude 6000
Route IOM NELBO IPSET
Aircraft C172/L-V/N

Departure

Time 2026-04-23 19:35
Airport Isle of Man Airport (EGNS)

Arrival

Time 2026-04-23 20:36
Airport George Best Belfast City Airport (EGAC)
Time Latitude Longitude Altitude Speed Heading
2026-04-23 19:14 54.08395 -4.63507 35 ft 0 kts 211°
2026-04-23 19:25 54.08393 -4.63510 35 ft 5 kts 219°
2026-04-23 19:25 54.08336 -4.63592 34 ft 0 kts 257°
2026-04-23 19:33 54.08297 -4.63728 34 ft 20 kts 242°
2026-04-23 19:34 54.08208 -4.63902 33 ft 19 kts 174°
2026-04-23 19:34 54.08161 -4.63734 32 ft 24 kts 77°
2026-04-23 19:34 54.08319 -4.62474 278 ft 63 kts 75°
2026-04-23 19:35 54.08405 -4.61742 544 ft 63 kts 78°
2026-04-23 19:35 54.08474 -4.60982 791 ft 67 kts 82°
2026-04-23 19:35 54.08570 -4.60155 972 ft 76 kts 81°
2026-04-23 19:35 54.08705 -4.59267 1189 ft 78 kts 81°
2026-04-23 19:36 54.08806 -4.58686 1341 ft 78 kts 79°
2026-04-23 19:36 54.08969 -4.57793 1547 ft 81 kts 81°
2026-04-23 19:36 54.09130 -4.56868 1766 ft 81 kts 82°
2026-04-23 19:36 54.09287 -4.55937 1984 ft 82 kts 82°
2026-04-23 19:37 54.09450 -4.54980 2180 ft 85 kts 82°
2026-04-23 19:37 54.09615 -4.53998 2367 ft 85 kts 88°
2026-04-23 19:37 54.09511 -4.53024 2518 ft 87 kts 124°
2026-04-23 19:37 54.09021 -4.52475 2702 ft 90 kts 166°
2026-04-23 19:38 54.08403 -4.52326 2901 ft 88 kts 168°
2026-04-23 19:38 54.07802 -4.52146 3098 ft 88 kts 166°
2026-04-23 19:38 54.07182 -4.51948 3221 ft 95 kts 168°
2026-04-23 19:38 54.06522 -4.51740 3393 ft 95 kts 169°
2026-04-23 19:39 54.05867 -4.51561 3543 ft 98 kts 171°
2026-04-23 19:39 54.05200 -4.51398 3682 ft 97 kts 169°
2026-04-23 19:39 54.04534 -4.51467 3834 ft 100 kts 199°
2026-04-23 19:39 54.03997 -4.52256 3966 ft 106 kts 234°
2026-04-23 19:40 54.03666 -4.53365 4120 ft 104 kts 240°
2026-04-23 19:40 54.03347 -4.54485 4248 ft 105 kts 241°
2026-04-23 19:40 54.03174 -4.55698 4342 ft 112 kts 269°
2026-04-23 19:40 54.03245 -4.56991 4508 ft 108 kts 274°
2026-04-23 19:41 54.03323 -4.58267 4624 ft 110 kts 272°
2026-04-23 19:41 54.03447 -4.59542 4744 ft 111 kts 284°
2026-04-23 19:41 54.03681 -4.60789 4883 ft 109 kts 284°
2026-04-23 19:41 54.03914 -4.62035 4985 ft 111 kts 283°
2026-04-23 19:42 54.04139 -4.63286 5109 ft 110 kts 284°
2026-04-23 19:42 54.04353 -4.64524 5220 ft 110 kts 282°
2026-04-23 19:42 54.04560 -4.65802 5322 ft 112 kts 285°
2026-04-23 19:42 54.04841 -4.67041 5435 ft 111 kts 286°
2026-04-23 19:43 54.05084 -4.68275 5526 ft 112 kts 284°
2026-04-23 19:43 54.05320 -4.69539 5632 ft 112 kts 285°
2026-04-23 19:43 54.05568 -4.70802 5739 ft 112 kts 285°
2026-04-23 19:43 54.05827 -4.72053 5853 ft 112 kts 287°
2026-04-23 19:44 54.06091 -4.73309 5956 ft 113 kts 285°
2026-04-23 19:44 54.06346 -4.74583 6012 ft 117 kts 286°
2026-04-23 19:44 54.06619 -4.75908 5974 ft 119 kts 286°
2026-04-23 19:44 54.06959 -4.77160 6016 ft 116 kts 304°
2026-04-23 19:45 54.07600 -4.78099 5937 ft 127 kts 330°
2026-04-23 19:45 54.08419 -4.78728 5847 ft 131 kts 337°
2026-04-23 19:45 54.09212 -4.79426 5866 ft 130 kts 324°
2026-04-23 19:45 54.09943 -4.80358 5861 ft 131 kts 321°
2026-04-23 19:46 54.10664 -4.81265 5895 ft 128 kts 323°
2026-04-23 19:46 54.11375 -4.82142 5951 ft 124 kts 322°
2026-04-23 19:46 54.12066 -4.83031 5952 ft 125 kts 321°
2026-04-23 19:46 54.12743 -4.83945 5983 ft 123 kts 319°
2026-04-23 19:47 54.13404 -4.84868 6021 ft 122 kts 319°
2026-04-23 19:47 54.14045 -4.85817 6051 ft 123 kts 316°
2026-04-23 19:47 54.14677 -4.86829 6024 ft 126 kts 316°
2026-04-23 19:47 54.15339 -4.87806 6056 ft 124 kts 319°
2026-04-23 19:48 54.16019 -4.88716 6065 ft 126 kts 322°
2026-04-23 19:48 54.16738 -4.89563 6062 ft 127 kts 325°
2026-04-23 19:48 54.17466 -4.90407 6032 ft 125 kts 324°
2026-04-23 19:48 54.18168 -4.91227 6017 ft 124 kts 324°
2026-04-23 19:49 54.18879 -4.92058 6004 ft 123 kts 325°
2026-04-23 19:49 54.19574 -4.92879 5992 ft 123 kts 324°
2026-04-23 19:49 54.20282 -4.93712 5956 ft 123 kts 323°
2026-04-23 19:49 54.20957 -4.94603 5947 ft 122 kts 320°
2026-04-23 19:50 54.21606 -4.95556 5902 ft 124 kts 318°
2026-04-23 19:50 54.22280 -4.96486 5878 ft 123 kts 321°
2026-04-23 19:50 54.22957 -4.97326 5929 ft 118 kts 324°
2026-04-23 19:50 54.23635 -4.98123 5934 ft 119 kts 325°
2026-04-23 19:51 54.24328 -4.98915 5945 ft 119 kts 325°
2026-04-23 19:51 54.25016 -4.99711 5952 ft 120 kts 324°
2026-04-23 19:51 54.25690 -5.00532 5992 ft 118 kts 322°
2026-04-23 19:51 54.26355 -5.01379 5998 ft 119 kts 321°
2026-04-23 19:52 54.26996 -5.02231 6032 ft 118 kts 320°
2026-04-23 19:52 54.27638 -5.03130 6042 ft 119 kts 317°
2026-04-23 19:52 54.28258 -5.04057 6057 ft 119 kts 317°
2026-04-23 19:52 54.28883 -5.04999 6072 ft 119 kts 317°
2026-04-23 19:53 54.29516 -5.05915 6087 ft 120 kts 318°
2026-04-23 19:53 54.30168 -5.06810 6106 ft 120 kts 320°
2026-04-23 19:53 54.30812 -5.07705 6123 ft 120 kts 321°
2026-04-23 19:53 54.31482 -5.08561 6137 ft 120 kts 324°
2026-04-23 19:54 54.32186 -5.09336 6151 ft 120 kts 324°
2026-04-23 19:54 54.32881 -5.10153 6121 ft 124 kts 325°
2026-04-23 19:54 54.33605 -5.10910 6175 ft 119 kts 329°
2026-04-23 19:54 54.34327 -5.11623 6173 ft 121 kts 328°
2026-04-23 19:55 54.35027 -5.12406 6201 ft 119 kts 323°
2026-04-23 19:55 54.35711 -5.13235 6177 ft 123 kts 322°
2026-04-23 19:55 54.36385 -5.14154 6147 ft 124 kts 318°
2026-04-23 19:55 54.37066 -5.15132 6065 ft 129 kts 319°
2026-04-23 19:56 54.37734 -5.16100 6075 ft 124 kts 318°
2026-04-23 19:56 54.38372 -5.17062 6078 ft 121 kts 316°
2026-04-23 19:56 54.38997 -5.18062 6005 ft 126 kts 314°
2026-04-23 19:56 54.39615 -5.19075 6053 ft 118 kts 314°
2026-04-23 19:57 54.40242 -5.20025 6007 ft 123 kts 317°
2026-04-23 19:57 54.40877 -5.20982 6017 ft 120 kts 315°
2026-04-23 19:57 54.41504 -5.21934 5994 ft 122 kts 317°
2026-04-23 19:57 54.42152 -5.22859 5996 ft 121 kts 319°
2026-04-23 19:58 54.42812 -5.23760 5981 ft 121 kts 322°
2026-04-23 19:58 54.43494 -5.24613 5984 ft 121 kts 321°
2026-04-23 19:58 54.44169 -5.25474 5981 ft 121 kts 321°
2026-04-23 19:58 54.44828 -5.26359 5971 ft 120 kts 320°
2026-04-23 19:59 54.45488 -5.27247 5974 ft 120 kts 321°
2026-04-23 19:59 54.46170 -5.28083 5956 ft 121 kts 323°
2026-04-23 19:59 54.46871 -5.28890 5948 ft 121 kts 325°
2026-04-23 19:59 54.47556 -5.29697 5946 ft 121 kts 322°
2026-04-23 20:00 54.48247 -5.30527 5935 ft 121 kts 322°
2026-04-23 20:00 54.48914 -5.31395 5975 ft 118 kts 320°
2026-04-23 20:00 54.49646 -5.32022 5943 ft 122 kts 351°
2026-04-23 20:00 54.50474 -5.32089 5952 ft 121 kts
2026-04-23 20:01 54.51326 -5.32119 5935 ft 122 kts
2026-04-23 20:01 54.52140 -5.32140 6036 ft 113 kts
2026-04-23 20:01 54.52941 -5.32187 6022 ft 117 kts 359°
2026-04-23 20:01 54.53730 -5.32258 6111 ft 112 kts 356°
2026-04-23 20:02 54.54536 -5.32361 6065 ft 120 kts 358°
2026-04-23 20:02 54.55380 -5.32465 6041 ft 122 kts 357°
2026-04-23 20:02 54.56214 -5.32565 6060 ft 120 kts 358°
2026-04-23 20:02 54.57024 -5.32929 6017 ft 122 kts 327°
2026-04-23 20:03 54.57572 -5.33991 6008 ft 117 kts 287°
2026-04-23 20:03 54.57707 -5.35337 6010 ft 112 kts 271°
2026-04-23 20:03 54.57774 -5.36671 6011 ft 111 kts 269°
2026-04-23 20:03 54.57833 -5.38006 5999 ft 112 kts 270°
2026-04-23 20:04 54.57893 -5.39332 6020 ft 110 kts 268°
2026-04-23 20:04 54.57916 -5.40636 6020 ft 110 kts 265°
2026-04-23 20:04 54.57942 -5.41957 6021 ft 110 kts 267°
2026-04-23 20:04 54.57970 -5.43282 6018 ft 111 kts 267°
2026-04-23 20:05 54.58018 -5.44602 6023 ft 111 kts 269°
2026-04-23 20:05 54.58071 -5.45928 6025 ft 110 kts 268°
2026-04-23 20:05 54.58090 -5.47243 6027 ft 110 kts 265°
2026-04-23 20:05 54.58122 -5.48566 6029 ft 110 kts 268°
2026-04-23 20:06 54.58155 -5.49882 6033 ft 110 kts 269°
2026-04-23 20:06 54.58166 -5.51197 6013 ft 109 kts 253°
2026-04-23 20:06 54.57853 -5.52351 6030 ft 103 kts 234°
2026-04-23 20:06 54.57482 -5.53395 6036 ft 104 kts 233°
2026-04-23 20:07 54.57119 -5.54465 6044 ft 104 kts 237°
2026-04-23 20:07 54.56788 -5.55571 6039 ft 105 kts 236°
2026-04-23 20:07 54.56448 -5.56680 6042 ft 105 kts 239°
2026-04-23 20:07 54.56133 -5.57808 6050 ft 105 kts 239°
2026-04-23 20:08 54.55829 -5.58954 6051 ft 105 kts 240°
2026-04-23 20:08 54.55577 -5.60144 6031 ft 110 kts 257°
2026-04-23 20:08 54.55667 -5.61489 6036 ft 114 kts 285°
2026-04-23 20:08 54.56014 -5.62723 6043 ft 115 kts 293°
2026-04-23 20:09 54.56382 -5.63954 6053 ft 115 kts 292°
2026-04-23 20:09 54.56734 -5.65154 6048 ft 115 kts 291°
2026-04-23 20:09 54.57067 -5.66405 6061 ft 114 kts 289°
2026-04-23 20:09 54.57417 -5.67636 6053 ft 115 kts 292°
2026-04-23 20:10 54.57655 -5.68448 6060 ft 114 kts 292°
2026-04-23 20:10 54.58102 -5.70109 6050 ft 115 kts 291°
2026-04-23 20:10 54.58460 -5.71333 6061 ft 114 kts 292°
2026-04-23 20:10 54.58827 -5.72550 6030 ft 116 kts 294°
2026-04-23 20:11 54.59207 -5.73777 6031 ft 116 kts 293°
2026-04-23 20:11 54.59562 -5.74986 6047 ft 114 kts 290°
2026-04-23 20:11 54.59908 -5.76225 6028 ft 115 kts 290°
2026-04-23 20:11 54.60239 -5.77477 6048 ft 114 kts 289°
2026-04-23 20:12 54.60577 -5.78724 6058 ft 115 kts 289°
2026-04-23 20:12 54.60875 -5.79990 6089 ft 113 kts 285°
2026-04-23 20:12 54.61143 -5.81271 6093 ft 114 kts 284°
2026-04-23 20:12 54.61389 -5.82557 6108 ft 113 kts 283°
2026-04-23 20:13 54.61692 -5.83827 6088 ft 116 kts 287°
2026-04-23 20:13 54.61978 -5.85106 6065 ft 116 kts 284°
2026-04-23 20:13 54.62238 -5.86423 6044 ft 116 kts 283°
2026-04-23 20:13 54.62468 -5.87747 6029 ft 116 kts 288°
2026-04-23 20:14 54.62974 -5.88903 5985 ft 122 kts 310°
2026-04-23 20:14 54.63520 -5.89944 6009 ft 117 kts 306°
2026-04-23 20:14 54.64081 -5.91017 5833 ft 123 kts 310°
2026-04-23 20:14 54.64640 -5.92069 5814 ft 117 kts 308°
2026-04-23 20:15 54.65184 -5.93197 5655 ft 123 kts 307°
2026-04-23 20:15 54.65767 -5.94229 5594 ft 121 kts 312°
2026-04-23 20:15 54.66365 -5.95256 5478 ft 120 kts 314°
2026-04-23 20:15 54.66999 -5.96210 5367 ft 122 kts 316°
2026-04-23 20:16 54.67594 -5.97237 5295 ft 119 kts 309°
2026-04-23 20:16 54.68180 -5.98270 5183 ft 120 kts 303°
2026-04-23 20:16 54.68422 -5.99582 5071 ft 114 kts 266°
2026-04-23 20:16 54.68423 -6.00918 5027 ft 110 kts 263°
2026-04-23 20:17 54.68414 -6.02282 4880 ft 115 kts 264°
2026-04-23 20:17 54.68419 -6.03641 4739 ft 114 kts 266°
2026-04-23 20:17 54.68457 -6.05016 4577 ft 115 kts 269°
2026-04-23 20:17 54.68528 -6.06412 4378 ft 118 kts 272°
2026-04-23 20:18 54.68792 -6.07735 4256 ft 119 kts 299°
2026-04-23 20:18 54.69258 -6.08918 4098 ft 119 kts 301°
2026-04-23 20:18 54.69708 -6.10103 4003 ft 116 kts 297°
2026-04-23 20:18 54.70082 -6.11340 3931 ft 116 kts 283°
2026-04-23 20:19 54.70045 -6.12634 3828 ft 108 kts 236°
2026-04-23 20:19 54.69488 -6.13415 3660 ft 101 kts 195°
2026-04-23 20:19 54.68799 -6.13482 3539 ft 96 kts 176°
2026-04-23 20:19 54.68122 -6.13488 3391 ft 97 kts 181°
2026-04-23 20:20 54.67454 -6.13518 3235 ft 97 kts 178°
2026-04-23 20:20 54.66777 -6.13515 3097 ft 97 kts 178°
2026-04-23 20:20 54.66100 -6.13507 3022 ft 97 kts 176°
2026-04-23 20:20 54.65430 -6.13457 3003 ft 96 kts 175°
2026-04-23 20:21 54.64761 -6.13435 2991 ft 95 kts 177°
2026-04-23 20:21 54.64109 -6.13425 2976 ft 94 kts 174°
2026-04-23 20:21 54.63516 -6.13030 2953 ft 93 kts 139°
2026-04-23 20:21 54.63299 -6.12002 2957 ft 97 kts 94°
2026-04-23 20:22 54.63531 -6.10900 2822 ft 100 kts 68°
2026-04-23 20:22 54.63862 -6.09829 2584 ft 102 kts 71°
2026-04-23 20:22 54.64186 -6.08730 2365 ft 103 kts 69°
2026-04-23 20:22 54.64521 -6.07653 2151 ft 102 kts 71°
2026-04-23 20:23 54.64827 -6.06557 2040 ft 101 kts 76°
2026-04-23 20:23 54.64890 -6.05411 2025 ft 97 kts 109°
2026-04-23 20:23 54.64495 -6.04516 2017 ft 96 kts 146°
2026-04-23 20:23 54.63837 -6.04231 1982 ft 101 kts 174°
2026-04-23 20:24 54.63135 -6.04280 2005 ft 97 kts 178°
2026-04-23 20:24 54.62469 -6.04333 2008 ft 96 kts 176°
2026-04-23 20:24 54.61796 -6.04334 2008 ft 97 kts 175°
2026-04-23 20:24 54.61121 -6.04336 2002 ft 97 kts 176°
2026-04-23 20:25 54.60441 -6.04351 2023 ft 97 kts 175°
2026-04-23 20:25 54.59981 -6.04357 2005 ft 101 kts 175°
2026-04-23 20:25 54.59299 -6.04317 2087 ft 91 kts 160°
2026-04-23 20:25 54.58700 -6.03308 2055 ft 92 kts 129°
2026-04-23 20:26 54.58302 -6.02425 2005 ft 96 kts 129°
2026-04-23 20:26 54.57883 -6.01529 2046 ft 96 kts 130°
2026-04-23 20:26 54.57604 -6.00911 2022 ft 97 kts 129°
2026-04-23 20:26 54.57204 -5.99963 1952 ft 97 kts 127°
2026-04-23 20:27 54.56821 -5.99054 1945 ft 94 kts 127°
2026-04-23 20:27 54.56448 -5.98152 1936 ft 90 kts 127°
2026-04-23 20:27 54.56069 -5.97297 1915 ft 90 kts 130°
2026-04-23 20:27 54.55667 -5.96491 1915 ft 89 kts 131°
2026-04-23 20:28 54.55271 -5.95690 1954 ft 86 kts 130°
2026-04-23 20:28 54.54890 -5.94906 1995 ft 87 kts 131°
2026-04-23 20:28 54.54492 -5.94123 2044 ft 86 kts 131°
2026-04-23 20:28 54.54087 -5.93291 1980 ft 93 kts 129°
2026-04-23 20:29 54.53699 -5.92415 2002 ft 91 kts 127°
2026-04-23 20:29 54.53316 -5.91527 1984 ft 93 kts 130°
2026-04-23 20:29 54.52765 -5.91023 2023 ft 93 kts 173°
2026-04-23 20:29 54.52140 -5.91434 2002 ft 104 kts 206°
2026-04-23 20:30 54.51542 -5.92164 1961 ft 104 kts 210°
2026-04-23 20:30 54.50436 -5.93803 1948 ft 107 kts 220°
2026-04-23 20:30 54.50132 -5.95051 1867 ft 121 kts 265°
2026-04-23 20:31 54.50386 -5.96399 1912 ft 118 kts 308°
2026-04-23 20:31 54.51099 -5.97132 1804 ft 122 kts 347°
2026-04-23 20:31 54.51923 -5.97414 1760 ft 117 kts
2026-04-23 20:31 54.52702 -5.97499 1793 ft 113 kts
2026-04-23 20:32 54.53449 -5.97274 1796 ft 106 kts 35°
2026-04-23 20:32 54.54095 -5.96654 1764 ft 107 kts 39°
2026-04-23 20:32 54.54691 -5.95934 1693 ft 105 kts 45°
2026-04-23 20:32 54.55245 -5.95119 1566 ft 104 kts 49°
2026-04-23 20:33 54.55808 -5.94342 1419 ft 106 kts 38°
2026-04-23 20:33 54.56473 -5.93741 1231 ft 107 kts 33°
2026-04-23 20:33 54.57078 -5.93032 969 ft 101 kts 43°
2026-04-23 20:33 54.57596 -5.92302 727 ft 94 kts 43°
2026-04-23 20:34 54.58162 -5.91535 661 ft 107 kts 34°
2026-04-23 20:34 54.58749 -5.91000 638 ft 93 kts 34°
2026-04-23 20:34 54.59287 -5.90394 569 ft 89 kts 40°
2026-04-23 20:34 54.59774 -5.89757 429 ft 87 kts 40°
2026-04-23 20:35 54.60282 -5.89133 270 ft 92 kts 37°
2026-04-23 20:35 54.60767 -5.88519 165 ft 79 kts 40°
2026-04-23 20:35 54.61187 -5.88012 72 ft 70 kts 40°
2026-04-23 20:35 54.61550 -5.87566 21 ft 59 kts 39°
2026-04-23 20:36 54.61838 -5.87219 17 ft 42 kts 34°
2026-04-23 20:36 54.62038 -5.86972 16 ft 25 kts 40°
2026-04-23 20:36 54.62095 -5.86907 16 ft 4 kts 294°
2026-04-23 20:36 54.62048 -5.86969 16 ft 17 kts 214°
2026-04-23 20:37 54.61930 -5.87110 16 ft 20 kts 214°
2026-04-23 20:37 54.61829 -5.87149 16 ft 15 kts 136°
2026-04-23 20:37 54.61774 -5.87025 16 ft 8 kts 126°
2026-04-23 20:37 54.61772 -5.87021 16 ft 0 kts 126°